CW1675 Weather Reports


Display with metric or nautical units.
time (UTC)temp
F
wind
direction
speed
MPH
gust
MPH
rain 1hr
in
rain 24hr
in
rain mn
in
humidity
%
barometer
mb
20260903173409 70 220 5.0 10.0 0.00 0.00 0.00 81 1020.9
20260903172910 70 241 7.0 10.0 0.00 0.00 0.00 81 1020.9
20260903170909 71 224 6.0 13.0 0.00 0.00 0.00 79 1020.5
20260903164908 71 229 6.0 18.0 0.00 0.00 0.00 79 1020.6
20260903162909 70 228 4.0 15.0 0.00 0.00 0.00 80 1020.7
20260903161908 70 271 4.0 7.0 0.00 0.00 0.00 80 1020.6
20260903160408 70 213 5.0 8.0 0.00 0.00 0.00 80 1020.7
20260903155408 70 205 6.0 9.0 0.00 0.00 0.00 80 1020.7
20260903153909 70 240 6.0 14.0 0.00 0.00 0.00 79 1020.8
20260903151908 70 214 7.0 15.0 0.00 0.00 0.00 80 1020.9
20260903150407 70 247 6.0 15.0 0.00 0.00 0.00 81 1021.0
20260903145408 69 224 7.0 10.0 0.00 0.00 0.00 81 1021.2
20260903140907 69 268 6.0 12.0 0.00 0.00 0.00 81 1021.0
20260903140407 69 237 7.0 13.0 0.00 0.00 0.00 81 1021.0
20260903135909 70 236 7.0 23.0 0.00 0.00 0.00 80 1021.0
20260903132909 70 242 7.0 10.0 0.00 0.00 0.00 79 1021.0
20260903131408 70 228 6.0 13.0 0.00 0.00 0.00 81 1020.9
20260903130408 69 267 7.0 12.0 0.00 0.00 0.00 80 1020.9
20260903125909 69 206 6.0 13.0 0.00 0.00 0.00 79 1020.9
20260903125408 69 225 6.0 13.0 0.00 0.00 0.00 79 1020.8
20260903124907 69 207 7.0 13.0 0.00 0.00 0.00 79 1020.8
20260903123908 69 264 7.0 15.0 0.00 0.00 0.00 80 1020.9
20260903123407 69 211 7.0 17.0 0.00 0.00 0.00 79 1020.9
20260903122910 69 243 6.0 12.0 0.00 0.00 0.00 80 1020.9
20260903121908 69 232 7.0 12.0 0.00 0.00 0.00 80 1021.0
20260903121408 69 260 7.0 10.0 0.00 0.00 0.00 80 1021.0
20260903115909 68 202 7.0 15.0 0.00 0.00 0.00 79 1020.9
20260903115409 69 214 7.0 14.0 0.00 0.00 0.00 78 1020.9
20260903113407 70 239 7.0 15.0 0.00 0.00 0.00 74 1020.8
20260903112909 70 245 6.0 13.0 0.00 0.00 0.00 75 1020.8
20260903111908 69 239 7.0 12.0 0.00 0.00 0.00 75 1020.9
20260903110908 70 233 6.0 16.0 0.00 0.00 0.00 73 1020.7
20260903105908 70 259 7.0 13.0 0.00 0.00 0.00 74 1020.7
20260903104908 69 236 9.0 14.0 0.00 0.00 0.00 74 1020.5
20260903103908 69 241 7.0 16.0 0.00 0.00 0.00 73 1020.4
20260903103407 69 226 7.0 15.0 0.00 0.00 0.00 73 1020.4
20260903102911 69 231 6.0 18.0 0.00 0.00 0.00 73 1020.4
20260903101908 69 211 6.0 8.0 0.00 0.00 0.00 75 1020.3
20260903101413 68 217 7.0 13.0 0.00 0.00 0.00 75 1020.3
20260903093407 67 226 8.0 15.0 0.00 0.00 0.00 77 1020.5
20260903091907 67 204 7.0 13.0 0.00 0.00 0.00 77 1020.8
20260903091408 67 217 7.0 17.0 0.00 0.00 0.00 76 1020.8
20260903090407 67 195 8.0 13.0 0.00 0.00 0.00 76 1020.8
20260903085909 67 237 8.0 16.0 0.00 0.00 0.00 75 1020.8
20260903084408 67 227 9.0 17.0 0.00 0.00 0.00 75 1020.7
20260903083907 67 193 9.0 17.0 0.00 0.00 0.00 76 1020.5
20260903083407 67 217 9.0 21.0 0.00 0.00 0.00 75 1020.5
20260903082909 67 224 9.0 18.0 0.00 0.00 0.00 76 1020.5
20260903082407 67 215 9.0 16.0 0.00 0.00 0.00 76 1020.5
20260903081407 67 208 7.0 15.0 0.00 0.00 0.00 76 1020.5
20260903080908 67 193 7.0 14.0 0.00 0.00 0.00 75 1020.6
20260903075408 66 221 6.0 12.0 0.00 0.00 0.00 74 1020.5
20260903073908 66 229 9.0 12.0 0.00 0.00 0.00 73 1020.4
20260903073408 66 200 9.0 16.0 0.00 0.00 0.00 73 1020.4
20260903072407 66 230 8.0 13.0 0.00 0.00 0.00 72 1020.4
20260903071908 66 234 7.0 15.0 0.00 0.00 0.00 72 1020.4
20260903071407 66 232 7.0 18.0 0.00 0.00 0.00 71 1020.4
20260903064407 66 201 7.0 12.0 0.00 0.00 0.00 69 1020.5
20260903063908 66 226 6.0 14.0 0.00 0.00 0.00 68 1020.2
20260903063407 66 216 6.0 14.0 0.00 0.00 0.00 68 1020.2
20260903055909 65 234 6.0 14.0 0.00 0.00 0.00 65 1020.4
20260903055416 65 212 7.0 10.0 0.00 0.00 0.00 65 1020.5
20260903054907 65 206 7.0 10.0 0.00 0.00 0.00 64 1020.5
20260903053907 65 220 7.0 12.0 0.00 0.00 0.00 63 1020.2
20260903045908 66 264 6.0 10.0 0.00 0.00 0.00 62 1020.3
20260903045407 66 247 6.0 9.0 0.00 0.00 0.00 62 1020.0
20260903044907 66 226 6.0 8.0 0.00 0.00 0.00 62 1020.0
20260903044407 66 205 6.0 12.0 0.00 0.00 0.00 62 1020.0
20260903042908 65 175 5.0 6.0 0.00 0.00 0.00 65 1020.0
20260903042407 64 179 5.0 8.0 0.00 0.00 0.00 65 1019.9
20260903041908 64 167 3.0 7.0 0.00 0.00 0.00 66 1019.9
20260903041408 64 170 3.0 9.0 0.00 0.00 0.00 67 1019.9
20260903040908 64 177 3.0 7.0 0.00 0.00 0.00 68 1020.1
20260903033907 63 167 1.0 3.0 0.00 0.00 0.00 69 1020.5
20260903033407 62 160 0.0 3.0 0.00 0.00 0.00 71 1020.5
20260903030407 64 157 5.0 3.0 0.00 0.00 0.00 67 1020.5
20260903025907 64 157 3.0 8.0 0.00 0.00 0.00 67 1020.5
20260903023908 64 188 3.0 8.0 0.00 0.00 0.00 67 1020.5
20260903023408 64 200 3.0 6.0 0.00 0.00 0.00 67 1020.5
20260903020406 64 212 5.0 5.0 0.00 0.00 0.00 70 1020.9
20260903015908 64 216 5.0 8.0 0.00 0.00 0.00 70 1020.9
20260903013407 60 228 0.0 5.0 0.00 0.00 0.00 85 1021.1
20260903012407 59 286 0.0 0.0 0.00 0.00 0.00 87 1021.1
20260903011907 59 286 0.0 2.0 0.00 0.00 0.00 87 1021.1
20260903011407 59 270 0.0 5.0 0.00 0.00 0.00 87 1021.1
20260903010408 59 260 0.0 2.0 0.00 0.00 0.00 87 1021.2
20260903005909 59 259 0.0 0.0 0.00 0.00 0.00 87 1021.2
20260903004908 58 299 0.0 2.0 0.00 0.00 0.00 86 1021.3
20260903004407 58 299 0.0 2.0 0.00 0.00 0.00 85 1021.3
20260903003908 58 299 0.0 2.0 0.00 0.00 0.00 85 1021.4
20260903002908 59 298 2.0 2.0 0.00 0.00 0.00 85 1021.4
20260903002407 59 298 2.0 5.0 0.00 0.00 0.00 84 1021.5
20260903001907 59 323 1.0 3.0 0.00 0.00 0.00 84 1021.5
20260903000407 59 345 2.0 2.0 0.00 0.00 0.00 84 1021.6
20260902235909 59 339 2.0 3.0 0.00 0.00 0.00 84 1021.6
20260902234907 57 171 2.0 5.0 0.00 0.00 0.00 89 1021.8
20260902234407 57 267 2.0 3.0 0.00 0.00 0.00 90 1021.8
20260902232407 56 292 0.0 2.0 0.00 0.00 0.00 90 1022.0
20260902231907 56 292 0.0 0.0 0.00 0.00 0.00 90 1022.0
20260902225909 56 265 0.0 2.0 0.00 0.00 0.00 91 1022.0
20260902225406 56 258 0.0 2.0 0.00 0.00 0.00 90 1022.0
20260902224907 56 258 0.0 2.0 0.00 0.00 0.00 90 1022.0
20260902223407 56 257 0.0 0.0 0.00 0.00 0.00 91 1022.2
20260902222407 56 257 0.0 0.0 0.00 0.00 0.00 92 1022.3
20260902221907 56 257 0.0 2.0 0.00 0.00 0.00 92 1022.3
20260902221408 56 257 0.0 0.0 0.00 0.00 0.00 91 1022.3
20260902215908 55 257 0.0 0.0 0.00 0.00 0.00 90 1022.3
20260902214907 55 257 0.0 2.0 0.00 0.00 0.00 88 1022.3
20260902214407 55 83 0.0 0.0 0.00 0.00 0.00 89 1022.3
20260902213907 55 83 0.0 0.0 0.00 0.00 0.00 88 1022.3
20260902213407 56 83 0.0 0.0 0.00 0.00 0.00 87 1022.3
20260902212407 56 83 0.0 0.0 0.00 0.00 0.00 88 1022.4
20260902205406 57 84 0.0 0.0 0.00 0.00 0.00 87 1022.3
20260902204907 57 83 0.0 0.0 0.00 0.00 0.00 86 1022.3
20260902203907 57 83 0.0 0.0 0.00 0.00 0.00 86 1022.4
20260902203407 58 83 0.0 0.0 0.00 0.00 0.00 85 1022.4
20260902202406 58 83 0.0 2.0 0.00 0.00 0.00 85 1022.5
20260902201907 58 83 0.0 0.0 0.00 0.00 0.00 85 1022.5
20260902201406 58 83 0.0 0.0 0.00 0.00 0.00 85 1022.5
20260902195909 58 83 0.0 2.0 0.00 0.00 0.00 84 1022.5
20260902195412 59 92 0.0 2.0 0.00 0.00 0.00 84 1022.3
20260902194916 59 94 0.0 2.0 0.00 0.00 0.00 83 1022.3
20260902194409 59 144 0.0 2.0 0.00 0.00 0.00 83 1022.3
20260902192910 59 144 0.0 2.0 0.00 0.00 0.00 82 1022.4
20260902192407 59 144 0.0 0.0 0.00 0.00 0.00 82 1022.3
20260902190908 60 141 0.0 0.0 0.00 0.00 0.00 80 1022.3
20260902185907 60 141 0.0 0.0 0.00 0.00 0.00 80 1022.3
20260902183407 62 141 1.0 2.0 0.00 0.00 0.00 75 1022.2
20260902182909 63 141 1.0 2.0 0.00 0.00 0.00 74 1022.2
20260902181907 64 141 0.0 2.0 0.00 0.00 0.00 72 1022.1
20260902181407 64 213 0.0 0.0 0.00 0.00 0.00 71 1022.1
20260902180908 65 213 1.0 1.0 0.00 0.00 0.00 70 1022.0